SCP
-0 -0 -0 -0 -0 -0 -0 -0 -0 -0 -0 -0 -0 -0 -0 -0 -0 0 0 0 0 -0 -0 0 0 0 0 0 0 0 0 0 0 0 0 0 0 0 0 0 0 0 0 0 -0
-0 -0 -0 -0 -0 -0 -0 -0 -0 -0 -0 -0 -0 -0 -0 -0 0 0 0 0 0 -0 0 -0 0 0 -0 -0 -0 0 0 0 0 0 0 0 0 0 0 0 0 0 0 -0 0
-0 -0 -0 -0 -0 -0 -0 -0 -0 -0 -0 -0 -0 -0 -0 0 -0 0 -0 0 -0 0 0 0 0 0 0 0 0 0 0 0 0 0 0 -0 0 0 0 0 0 -0 0 0 0
-0 -0 -0 -0 -0 -0 -0 -0 -0 -0 -0 -0 -0 -0 -0 -0 0 -0 0 0 0 0 -0 -0 0 -0 -0 0 0 0 0 0 0 -0 -0 -0 0 0 0 0 0 -0 -0 0 0
-0 -0 -0 -0 -0 -0 -0 -0 -0 -0 -0 -0 -0 -0 -0 -0 -0 -0 -0 0 0 -0 -0 0 0 0 0 0 0 0 0 0 0 0 -0 0 0 0 0 -0 -0 0 -0 -0 0
-0 -0 -0 -0 -0 -0 -0 -0 -0 -0 -0 0 0 0 0 0 0 -0 -0 0 0 -0 0 0 0 0 0 0 0 0 -0 0 -0 -0 -0 -0 0 0 0 -0 -0 -0 -0 -0 -0
0 -0 -0 -0 -0 -0 -0 -0 -0 -0 -0 0 0 0 0 0 0 -0 -0 -0 -0 0 0 0 0 0 0 -0 0 0 -0 0 -0 -0 0 -0 0 0 -0 -0 -0 -0 0 -0 -0
0 0 -0 -0 -0 -0 -0 -0 -0 -0 -0 0 0 0 0 0 0 0 0 0 0 0 0 0 0 0 0 0 0 -0 -0 -0 0 0 -0 -0 0 0 -0 -0 -0 -0 0 -0 -0
-0 -0 -0 -0 -0 -0 -0 -0 -0 0 -0 -0 0 0 0 0 0 0 0 0 -0 -0 0 0 0 0 0 0 0 0 0 0 0 -0 0 -0 0 -0 -0 -0 -0 -0 0 -0 -0
-0 -0 -0 -0 -0 -0 -0 -0 -0 -0 -0 0 -0 0 0 0 0 0 0 0 0 0 0 0 0 0 0 0 0 0 0 -0 -0 -0 0 -0 0 -0 -0 -0 -0 -0 -0 0 -0
-0 -0 -0 -0 -0 -0 -0 -0 0 -0 -0 -0 -0 -0 0 0 0 0 0 0 0 0 0 0 0 0 0 0 0 0 0 0 0 -0 -0 -0 0 -0 -0 -0 -0 -0 -0 0 -0
-0 -0 -0 -0 -0 -0 -0 -0 -0 -0 -0 -0 0 0 0 -0 0 0 0 0 0 0 0 0 -0 0 0 0 0 0 0 0 0 0 0 -0 0 0 -0 -0 -0 -0 -0 -0 0
-0 -0 -0 -0 -0 0 -0 0 0 0 0 0 0 0 0 0 0 -0 0 0 0 0 0 0 0 0 -0 0 0 0 0 0 0 0 0 0 -0 -0 -0 -0 -0 -0 -0 -0 -0
-0 -0 -0 -0 0 0 0 0 0 -0 0 0 0 -0 -0 0 0 0 0 0 0 0 0 -0 0 0 0 -0 0 0 0 0 0 0 0 0 0 0 -0 -0 -0 -0 -0 -0 -0
-0 -0 -0 0 0 0 0 0 0 0 0 0 0 0 0 0 -0 0 0 0 0 0 0 0 -0 -0 -0 0 0 0 0 0 0 0 0 0 0 0 0 0 -0 0 -0 -0 -0
-0 -0 0 0 0 0 0 0 0 0 0 0 0 0 0 0 0 0 0 0 0 0 0 0 0 0 0 0 0 0 0 0 0 0 0 0 0 0 0 0 0 0 0 -0 -0
-0 0 -0 0 0 0 0 0 0 0 0 0 0 0 0 0 0 0 0 0 0 0 0 0 0 0 0 0 0 0 0 0 0 0 0 0 0 0 0 0 0 0 0 0 -0
-0 -0 0 0 0 0 0 0 0 0 0 0 0 0 0 0 0 0 0 0 0 0 0 0 0 0 0 0 0 0 0 0 0 0 0 0 0 0 0 0 0 0 0 0 0
0 0 0 0 0 0 0 0 0 0 0 0 0 0 0 0 0 0 0 0 0 0 0 0 0 0 0 0 0 0 0 0 0 0 0 0 0 0 0 0 0 0 0 0 -0
0 0 0 0 0 0 0 0 0 0 0 0 0 0 0 0 0 0 0 0 0 0 0 0 0 0 0 0 0 0 0 0 0 0 0 0 0 0 0 0 0 0 0 0 0
0 0 0 0 0 0 0 0 0 0 0 0 0 0 0 0 0 0 0 0 0 0 0 0 0 0 0 0 0 0 0 0 0 0 0 -0 -0 0 0 0 0 0 0 0 0
0 0 0 0 0 0 0 0 0 0 0 0 0 0 0 0 0 0 0 0 0 0 0 0 0 0 0 0 0 0 0 0 0 0 0 0 -0 1 1 1 0 0 0 0 0
0 0 0 0 0 0 0 0 0 0 0 0 0 0 0 0 0 0 0 0 0 0 0 0 0 0 0 0 0 0 0 0 0 0 0 0 0 1 1 0 0 1 0 0 0
0 0 0 0 0 0 0 0 0 0 0 0 0 0 0 0 0 0 0 0 0 0 0 0 0 0 0 0 0 0 0 0 0 0 0 0 0 0 0 0 1 1 0 0 0
0 0 0 0 0 0 0 0 0 0 0 0 0 0 0 0 0 0 0 0 0 0 0 0 0 0 0 0 0 0 0 0 0 0 0 0 0 0 1 1 1 0 0 0 0
0 0 0 0 0 0 0 0 0 0 0 0 0 0 0 0 0 0 0 0 0 0 0 0 0 0 0 0 0 0 0 0 0 0 0 0 0 0 1 1 1 0 0 0 0
0 0 0 0 0 0 0 0 0 0 0 0 0 0 0 0 0 0 0 0 0 0 0 0 0 0 0 0 0 0 0 0 0 0 0 0 0 1 1 1 1 0 0 0 0
Wind_Speed_500mb
22 18 15 14 14 13 14 13 13 8 5 5 5 1 3 4 9 17 18 17 27 30 30 31 22 16 8 4 0 1 5 8 6 10 10 24 13 6 8 25 10 9 31 38 44
25 20 17 16 15 15 15 14 13 7 4 5 2 2 3 3 7 18 20 28 27 27 34 26 21 12 5 1 2 1 6 7 3 4 10 24 21 14 15 10 13 32 39 43 40
27 22 20 17 15 16 16 15 13 6 2 3 1 3 5 6 13 9 25 28 23 25 26 20 14 6 4 2 7 3 8 3 12 10 23 30 23 7 30 7 14 45 44 42 36
28 25 22 19 17 17 16 15 11 5 4 2 1 5 8 18 8 12 30 28 26 28 28 16 9 6 5 3 3 3 4 4 7 17 27 31 27 21 7 6 28 43 46 41 37
27 27 25 21 18 18 17 15 8 4 3 1 1 7 14 14 10 18 27 28 27 26 24 12 5 4 5 5 5 4 9 3 4 8 24 27 18 18 11 26 37 41 39 36 32
27 28 27 23 19 18 16 12 5 3 2 3 4 9 16 8 18 16 24 24 23 21 22 13 5 2 8 6 2 4 14 13 3 28 32 28 19 18 12 32 39 37 34 32 30
27 28 30 25 19 17 14 7 3 3 4 4 5 11 13 12 16 12 20 24 24 21 20 10 5 3 7 9 1 7 16 19 20 19 8 34 14 4 32 38 40 36 32 31 31
27 30 31 26 20 16 7 6 6 4 5 6 10 17 9 17 13 10 17 26 31 26 17 8 8 5 3 8 4 12 8 4 7 3 15 16 10 11 38 43 40 35 32 31 32
31 31 31 25 19 10 6 4 4 6 8 11 13 11 10 12 8 9 15 24 28 27 17 3 3 4 5 5 9 3 3 7 7 5 12 10 3 21 36 37 39 37 35 34 31
31 33 34 24 13 7 6 10 8 9 9 12 11 11 8 8 11 15 20 27 16 25 12 7 4 7 6 1 11 12 8 8 9 15 12 11 3 21 35 39 37 38 37 35 35
32 31 31 24 7 8 6 1 5 3 3 2 6 3 13 9 14 22 23 17 17 14 10 4 9 14 8 7 8 6 5 8 5 4 6 13 11 25 37 37 37 38 41 41 43
35 33 29 20 5 9 11 8 12 4 4 2 8 7 11 10 10 25 22 10 9 17 8 5 17 12 7 9 4 3 2 2 1 3 7 6 19 20 38 51 53 49 46 47 44
41 38 28 16 5 8 12 12 13 8 2 2 4 5 8 19 10 24 24 12 9 12 9 15 3 13 12 10 10 7 6 2 6 6 4 4 12 16 24 41 45 48 47 45 50
44 39 30 11 5 5 3 7 10 5 2 5 5 6 14 11 6 27 22 9 5 13 12 7 3 7 7 10 12 14 15 12 13 13 6 6 8 10 15 29 36 49 50 53 52
46 42 32 9 7 10 4 5 7 4 4 8 7 9 17 7 13 15 24 9 12 13 11 7 9 12 16 10 17 3 7 16 19 15 6 11 8 7 7 10 21 38 53 55 52
49 44 33 12 7 17 9 4 4 5 6 9 8 10 12 4 5 10 11 10 10 8 1 6 1 6 6 6 19 20 15 11 8 9 11 17 13 6 1 2 12 20 36 53 53
50 44 33 11 4 18 12 4 3 6 1 10 7 9 12 11 8 10 18 18 12 10 15 5 11 5 9 8 7 14 17 13 11 10 15 8 13 22 6 5 17 24 24 31 47
49 44 20 5 13 15 15 4 6 1 7 5 6 8 14 16 9 8 13 20 6 5 6 16 10 17 16 24 14 18 25 23 23 21 16 7 13 4 9 3 15 16 27 19 30
46 37 10 4 16 14 9 6 5 7 1 2 6 9 11 10 7 10 16 19 20 23 12 11 10 4 9 5 13 13 16 7 13 3 11 13 8 8 12 5 21 31 35 31 6
47 24 9 2 20 13 3 5 5 5 4 0 9 9 21 16 18 18 19 10 16 28 18 9 7 5 3 9 7 9 17 12 5 22 31 17 9 14 11 10 18 25 34 34 22
38 11 7 9 18 7 6 8 8 11 3 6 5 5 9 11 18 13 15 7 12 16 18 14 9 6 5 10 18 9 9 3 4 6 23 27 20 3 6 4 9 15 21 25 25
18 7 3 14 5 1 7 9 4 4 5 6 5 8 9 12 15 16 21 8 16 27 21 16 9 21 26 3 8 4 10 20 18 17 2 10 21 6 5 5 1 6 10 10 13
27 12 12 16 9 9 4 5 7 6 5 2 5 11 5 7 7 13 12 8 19 24 22 20 11 13 8 8 7 10 9 6 4 2 20 23 20 10 12 8 9 6 7 11 20
13 6 3 6 2 4 7 8 8 9 7 6 5 2 5 8 13 3 12 4 16 19 13 29 12 20 23 16 7 11 18 14 19 21 26 21 24 18 22 19 18 16 16 16 20
4 3 3 2 3 8 6 1 8 7 6 6 8 7 3 5 5 12 11 5 6 16 11 15 17 17 20 12 16 17 25 23 21 17 17 20 19 22 29 23 23 25 20 21 19
6 5 4 7 8 5 4 5 20 20 11 20 16 5 4 8 4 9 7 8 11 14 14 8 15 13 17 13 21 17 23 22 16 10 15 14 18 8 32 33 21 17 17 12 9
10 11 8 9 3 5 7 9 7 3 4 1 6 3 10 14 7 23 22 22 11 6 20 14 16 12 31 14 13 17 27 27 13 14 8 15 7 29 31 31 27 20 16 13 7
Wind_Direction_500mb
3 0 356 352 348 343 345 349 346 340 322 318 314 283 250 235 177 187 190 178 167 155 154 149 137 127 140 146 84 133 60 70 69 176 128 146 129 105 96 132 92 47 133 146 148
13 9 2 354 348 345 344 344 346 343 340 325 311 220 209 200 205 184 184 164 172 166 160 156 144 145 107 239 338 288 73 51 36 321 180 152 147 134 134 128 72 101 132 147 151
13 10 3 355 348 343 342 342 344 336 347 313 202 185 162 153 138 168 171 162 157 160 165 157 149 136 80 33 16 37 86 73 47 336 172 147 133 108 141 164 158 147 147 155 157
10 8 2 355 346 342 341 340 341 335 343 321 176 156 148 141 168 163 171 176 164 158 161 158 162 127 68 25 4 156 193 72 42 78 151 154 135 120 73 99 157 155 154 159 162
6 7 2 354 348 340 338 340 340 347 359 13 144 143 139 116 109 152 169 165 171 175 174 174 156 90 68 133 149 32 19 44 302 163 152 139 129 132 65 124 146 152 162 166 170
3 5 1 353 345 337 335 339 353 10 51 60 131 152 145 110 132 134 177 182 191 190 185 193 345 347 92 165 263 133 70 40 16 142 148 140 130 131 146 144 149 159 173 175 182
359 2 359 353 346 338 336 353 28 53 85 76 128 152 142 125 145 148 176 187 194 193 191 178 360 286 175 151 216 127 82 67 81 132 117 139 144 119 159 158 157 172 182 189 194
357 357 356 353 349 341 1 48 51 90 103 108 135 141 122 143 144 144 172 177 184 183 166 192 336 187 233 123 37 126 118 273 89 44 158 209 194 164 169 167 164 176 189 198 200
356 356 355 354 350 354 38 18 63 83 103 109 122 133 128 164 152 145 142 162 173 169 165 211 122 117 125 113 133 96 81 198 154 131 162 221 206 167 178 180 171 182 193 202 207
359 355 352 355 6 26 50 73 99 86 95 100 121 131 142 145 152 144 133 134 139 154 147 165 132 168 125 137 199 165 172 221 176 180 175 166 72 171 184 188 188 188 196 206 211
360 358 352 354 62 47 88 81 338 318 300 136 142 122 137 127 150 158 156 136 128 143 165 67 200 209 160 151 76 96 171 204 167 177 214 206 160 186 192 202 204 202 201 211 218
1 359 354 355 102 59 76 87 56 321 325 236 216 220 189 165 137 161 156 157 146 163 133 143 230 149 119 160 141 90 160 341 266 136 228 262 256 207 196 206 208 207 210 214 223
358 359 0 354 165 105 87 58 19 357 268 293 182 167 163 160 158 169 168 137 136 144 159 205 143 121 189 174 172 191 209 205 299 138 208 305 269 225 212 220 214 220 223 223 222
356 355 356 358 170 190 129 21 6 -0 24 154 202 163 157 153 114 173 172 149 106 171 154 233 151 219 170 208 198 237 207 193 182 181 263 228 294 247 237 224 215 221 219 226 227
352 349 348 323 254 190 206 343 355 329 170 138 145 162 164 164 137 177 181 166 159 153 184 185 175 194 219 222 194 245 144 198 187 193 235 183 258 294 340 267 253 240 232 230 229
352 346 343 328 259 198 204 320 336 249 196 161 143 154 155 134 107 135 168 165 126 130 183 236 221 235 224 192 193 144 109 83 107 215 240 237 236 256 194 321 297 305 236 233 229
350 345 338 325 181 180 185 183 234 231 32 167 172 173 181 165 186 166 176 186 193 186 219 227 230 224 195 195 152 198 189 211 212 208 255 166 203 261 178 315 313 320 291 250 232
348 347 344 310 183 170 161 123 233 292 195 95 123 125 188 165 188 154 165 197 171 134 155 213 215 195 173 215 206 195 220 223 229 227 233 174 224 221 131 2 339 358 339 274 236
348 353 17 39 168 169 170 198 238 202 353 140 121 181 189 199 211 173 196 210 198 187 211 183 238 234 219 187 203 162 209 253 224 81 250 215 236 204 227 310 13 8 14 19 266
344 344 6 105 170 160 145 259 252 231 333 214 230 217 193 180 187 196 186 187 191 195 201 183 254 194 154 152 72 235 143 186 220 225 240 219 240 243 192 348 1 17 12 13 22
342 336 348 155 166 165 217 234 257 242 250 230 224 213 221 189 204 195 197 195 207 169 187 167 229 181 244 199 195 157 191 80 235 261 244 248 243 196 162 72 356 19 29 13 19
353 307 320 176 193 227 194 194 226 249 216 242 240 237 223 194 184 209 211 240 177 149 176 196 225 236 245 77 296 299 240 214 230 207 230 270 253 153 125 113 114 38 45 50 68
336 283 265 213 224 215 241 229 233 219 225 204 253 224 189 232 219 214 199 195 170 172 178 174 215 224 200 170 163 211 186 186 125 162 219 243 251 174 164 166 137 125 109 95 90
329 304 312 200 289 245 195 228 233 227 232 200 269 239 206 228 222 238 223 233 185 207 202 172 177 215 229 238 157 184 188 190 216 234 234 234 246 194 198 186 147 130 139 126 108
270 277 299 309 104 331 273 236 193 193 221 217 164 92 51 267 216 219 225 216 193 180 154 195 223 206 230 228 208 198 184 178 196 229 237 249 218 205 195 184 159 156 163 146 117
268 286 323 282 285 237 221 243 241 234 231 253 249 305 220 228 287 332 333 226 220 176 187 192 226 197 232 200 212 214 196 189 207 187 231 240 250 238 163 158 159 180 179 205 142
241 266 263 258 227 223 236 240 243 239 223 326 115 273 228 241 293 292 264 268 267 250 199 185 184 195 234 210 202 236 209 197 192 198 209 210 233 152 159 161 172 198 215 225 209
Wind_Speed_850mb
22 18 15 14 14 13 14 13 13 8 5 5 5 1 3 4 9 17 18 17 27 30 30 31 22 16 8 4 0 1 5 8 6 10 10 24 13 6 8 25 10 9 31 38 44
25 20 17 16 15 15 15 14 13 7 4 5 2 2 3 3 7 18 20 28 27 27 34 26 21 12 5 1 2 1 6 7 3 4 10 24 21 14 15 10 13 32 39 43 40
27 22 20 17 15 16 16 15 13 6 2 3 1 3 5 6 13 9 25 28 23 25 26 20 14 6 4 2 7 3 8 3 12 10 23 30 23 7 30 7 14 45 44 42 36
28 25 22 19 17 17 16 15 11 5 4 2 1 5 8 18 8 12 30 28 26 28 28 16 9 6 5 3 3 3 4 4 7 17 27 31 27 21 7 6 28 43 46 41 37
27 27 25 21 18 18 17 15 8 4 3 1 1 7 14 14 10 18 27 28 27 26 24 12 5 4 5 5 5 4 9 3 4 8 24 27 18 18 11 26 37 41 39 36 32
27 28 27 23 19 18 16 12 5 3 2 3 4 9 16 8 18 16 24 24 23 21 22 13 5 2 8 6 2 4 14 13 3 28 32 28 19 18 12 32 39 37 34 32 30
27 28 30 25 19 17 14 7 3 3 4 4 5 11 13 12 16 12 20 24 24 21 20 10 5 3 7 9 1 7 16 19 20 19 8 34 14 4 32 38 40 36 32 31 31
27 30 31 26 20 16 7 6 6 4 5 6 10 17 9 17 13 10 17 26 31 26 17 8 8 5 3 8 4 12 8 4 7 3 15 16 10 11 38 43 40 35 32 31 32
31 31 31 25 19 10 6 4 4 6 8 11 13 11 10 12 8 9 15 24 28 27 17 3 3 4 5 5 9 3 3 7 7 5 12 10 3 21 36 37 39 37 35 34 31
31 33 34 24 13 7 6 10 8 9 9 12 11 11 8 8 11 15 20 27 16 25 12 7 4 7 6 1 11 12 8 8 9 15 12 11 3 21 35 39 37 38 37 35 35
32 31 31 24 7 8 6 1 5 3 3 2 6 3 13 9 14 22 23 17 17 14 10 4 9 14 8 7 8 6 5 8 5 4 6 13 11 25 37 37 37 38 41 41 43
35 33 29 20 5 9 11 8 12 4 4 2 8 7 11 10 10 25 22 10 9 17 8 5 17 12 7 9 4 3 2 2 1 3 7 6 19 20 38 51 53 49 46 47 44
41 38 28 16 5 8 12 12 13 8 2 2 4 5 8 19 10 24 24 12 9 12 9 15 3 13 12 10 10 7 6 2 6 6 4 4 12 16 24 41 45 48 47 45 50
44 39 30 11 5 5 3 7 10 5 2 5 5 6 14 11 6 27 22 9 5 13 12 7 3 7 7 10 12 14 15 12 13 13 6 6 8 10 15 29 36 49 50 53 52
46 42 32 9 7 10 4 5 7 4 4 8 7 9 17 7 13 15 24 9 12 13 11 7 9 12 16 10 17 3 7 16 19 15 6 11 8 7 7 10 21 38 53 55 52
49 44 33 12 7 17 9 4 4 5 6 9 8 10 12 4 5 10 11 10 10 8 1 6 1 6 6 6 19 20 15 11 8 9 11 17 13 6 1 2 12 20 36 53 53
50 44 33 11 4 18 12 4 3 6 1 10 7 9 12 11 8 10 18 18 12 10 15 5 11 5 9 8 7 14 17 13 11 10 15 8 13 22 6 5 17 24 24 31 47
49 44 20 5 13 15 15 4 6 1 7 5 6 8 14 16 9 8 13 20 6 5 6 16 10 17 16 24 14 18 25 23 23 21 16 7 13 4 9 3 15 16 27 19 30
46 37 10 4 16 14 9 6 5 7 1 2 6 9 11 10 7 10 16 19 20 23 12 11 10 4 9 5 13 13 16 7 13 3 11 13 8 8 12 5 21 31 35 31 6
47 24 9 2 20 13 3 5 5 5 4 0 9 9 21 16 18 18 19 10 16 28 18 9 7 5 3 9 7 9 17 12 5 22 31 17 9 14 11 10 18 25 34 34 22
38 11 7 9 18 7 6 8 8 11 3 6 5 5 9 11 18 13 15 7 12 16 18 14 9 6 5 10 18 9 9 3 4 6 23 27 20 3 6 4 9 15 21 25 25
18 7 3 14 5 1 7 9 4 4 5 6 5 8 9 12 15 16 21 8 16 27 21 16 9 21 26 3 8 4 10 20 18 17 2 10 21 6 5 5 1 6 10 10 13
27 12 12 16 9 9 4 5 7 6 5 2 5 11 5 7 7 13 12 8 19 24 22 20 11 13 8 8 7 10 9 6 4 2 20 23 20 10 12 8 9 6 7 11 20
13 6 3 6 2 4 7 8 8 9 7 6 5 2 5 8 13 3 12 4 16 19 13 29 12 20 23 16 7 11 18 14 19 21 26 21 24 18 22 19 18 16 16 16 20
4 3 3 2 3 8 6 1 8 7 6 6 8 7 3 5 5 12 11 5 6 16 11 15 17 17 20 12 16 17 25 23 21 17 17 20 19 22 29 23 23 25 20 21 19
6 5 4 7 8 5 4 5 20 20 11 20 16 5 4 8 4 9 7 8 11 14 14 8 15 13 17 13 21 17 23 22 16 10 15 14 18 8 32 33 21 17 17 12 9
10 11 8 9 3 5 7 9 7 3 4 1 6 3 10 14 7 23 22 22 11 6 20 14 16 12 31 14 13 17 27 27 13 14 8 15 7 29 31 31 27 20 16 13 7
Wind_Direction_850mb
3 0 356 352 348 343 345 349 346 340 322 318 314 283 250 235 177 187 190 178 167 155 154 149 137 127 140 146 84 133 60 70 69 176 128 146 129 105 96 132 92 47 133 146 148
13 9 2 354 348 345 344 344 346 343 340 325 311 220 209 200 205 184 184 164 172 166 160 156 144 145 107 239 338 288 73 51 36 321 180 152 147 134 134 128 72 101 132 147 151
13 10 3 355 348 343 342 342 344 336 347 313 202 185 162 153 138 168 171 162 157 160 165 157 149 136 80 33 16 37 86 73 47 336 172 147 133 108 141 164 158 147 147 155 157
10 8 2 355 346 342 341 340 341 335 343 321 176 156 148 141 168 163 171 176 164 158 161 158 162 127 68 25 4 156 193 72 42 78 151 154 135 120 73 99 157 155 154 159 162
6 7 2 354 348 340 338 340 340 347 359 13 144 143 139 116 109 152 169 165 171 175 174 174 156 90 68 133 149 32 19 44 302 163 152 139 129 132 65 124 146 152 162 166 170
3 5 1 353 345 337 335 339 353 10 51 60 131 152 145 110 132 134 177 182 191 190 185 193 345 347 92 165 263 133 70 40 16 142 148 140 130 131 146 144 149 159 173 175 182
359 2 359 353 346 338 336 353 28 53 85 76 128 152 142 125 145 148 176 187 194 193 191 178 360 286 175 151 216 127 82 67 81 132 117 139 144 119 159 158 157 172 182 189 194
357 357 356 353 349 341 1 48 51 90 103 108 135 141 122 143 144 144 172 177 184 183 166 192 336 187 233 123 37 126 118 273 89 44 158 209 194 164 169 167 164 176 189 198 200
356 356 355 354 350 354 38 18 63 83 103 109 122 133 128 164 152 145 142 162 173 169 165 211 122 117 125 113 133 96 81 198 154 131 162 221 206 167 178 180 171 182 193 202 207
359 355 352 355 6 26 50 73 99 86 95 100 121 131 142 145 152 144 133 134 139 154 147 165 132 168 125 137 199 165 172 221 176 180 175 166 72 171 184 188 188 188 196 206 211
360 358 352 354 62 47 88 81 338 318 300 136 142 122 137 127 150 158 156 136 128 143 165 67 200 209 160 151 76 96 171 204 167 177 214 206 160 186 192 202 204 202 201 211 218
1 359 354 355 102 59 76 87 56 321 325 236 216 220 189 165 137 161 156 157 146 163 133 143 230 149 119 160 141 90 160 341 266 136 228 262 256 207 196 206 208 207 210 214 223
358 359 0 354 165 105 87 58 19 357 268 293 182 167 163 160 158 169 168 137 136 144 159 205 143 121 189 174 172 191 209 205 299 138 208 305 269 225 212 220 214 220 223 223 222
356 355 356 358 170 190 129 21 6 -0 24 154 202 163 157 153 114 173 172 149 106 171 154 233 151 219 170 208 198 237 207 193 182 181 263 228 294 247 237 224 215 221 219 226 227
352 349 348 323 254 190 206 343 355 329 170 138 145 162 164 164 137 177 181 166 159 153 184 185 175 194 219 222 194 245 144 198 187 193 235 183 258 294 340 267 253 240 232 230 229
352 346 343 328 259 198 204 320 336 249 196 161 143 154 155 134 107 135 168 165 126 130 183 236 221 235 224 192 193 144 109 83 107 215 240 237 236 256 194 321 297 305 236 233 229
350 345 338 325 181 180 185 183 234 231 32 167 172 173 181 165 186 166 176 186 193 186 219 227 230 224 195 195 152 198 189 211 212 208 255 166 203 261 178 315 313 320 291 250 232
348 347 344 310 183 170 161 123 233 292 195 95 123 125 188 165 188 154 165 197 171 134 155 213 215 195 173 215 206 195 220 223 229 227 233 174 224 221 131 2 339 358 339 274 236
348 353 17 39 168 169 170 198 238 202 353 140 121 181 189 199 211 173 196 210 198 187 211 183 238 234 219 187 203 162 209 253 224 81 250 215 236 204 227 310 13 8 14 19 266
344 344 6 105 170 160 145 259 252 231 333 214 230 217 193 180 187 196 186 187 191 195 201 183 254 194 154 152 72 235 143 186 220 225 240 219 240 243 192 348 1 17 12 13 22
342 336 348 155 166 165 217 234 257 242 250 230 224 213 221 189 204 195 197 195 207 169 187 167 229 181 244 199 195 157 191 80 235 261 244 248 243 196 162 72 356 19 29 13 19
353 307 320 176 193 227 194 194 226 249 216 242 240 237 223 194 184 209 211 240 177 149 176 196 225 236 245 77 296 299 240 214 230 207 230 270 253 153 125 113 114 38 45 50 68
336 283 265 213 224 215 241 229 233 219 225 204 253 224 189 232 219 214 199 195 170 172 178 174 215 224 200 170 163 211 186 186 125 162 219 243 251 174 164 166 137 125 109 95 90
329 304 312 200 289 245 195 228 233 227 232 200 269 239 206 228 222 238 223 233 185 207 202 172 177 215 229 238 157 184 188 190 216 234 234 234 246 194 198 186 147 130 139 126 108
270 277 299 309 104 331 273 236 193 193 221 217 164 92 51 267 216 219 225 216 193 180 154 195 223 206 230 228 208 198 184 178 196 229 237 249 218 205 195 184 159 156 163 146 117
268 286 323 282 285 237 221 243 241 234 231 253 249 305 220 228 287 332 333 226 220 176 187 192 226 197 232 200 212 214 196 189 207 187 231 240 250 238 163 158 159 180 179 205 142
241 266 263 258 227 223 236 240 243 239 223 326 115 273 228 241 293 292 264 268 267 250 199 185 184 195 234 210 202 236 209 197 192 198 209 210 233 152 159 161 172 198 215 225 209